Temp
11 12 12 12 12 10 11 12 12 13 11 13 14 14 14 13 13 13 12 11 10 9 8 8 7 7 6 6 5 5 5 4 3 3 3 3 2 3 3 2 2 2 2 2
12 11 13 13 12 9 10 10 12 11 11 12 12 12 12 12 13 12 11 10 9 9 8 7 6 6 5 5 4 4 4 3 3 3 2 2 2 2 2 2 1 1 1 0
12 11 12 13 11 9 10 10 10 10 11 11 10 10 12 13 13 13 13 11 10 8 7 6 6 5 5 4 4 3 3 3 2 2 2 2 1 1 1 1 0 -0 -0 -1
9 11 11 13 11 10 10 10 11 10 10 10 10 11 11 12 12 13 11 10 9 7 6 5 5 5 4 3 3 3 2 2 2 1 1 1 0 0 0 -0 -1 -1 -2 -2
10 9 11 12 10 10 11 11 10 9 9 10 10 11 11 11 11 11 11 9 8 6 5 5 4 3 3 2 2 2 1 1 1 0 0 -0 -0 -0 -1 -2 -2 -3 -3 -4
6 9 11 12 11 12 11 10 9 9 8 8 9 7 7 10 10 9 9 7 6 5 5 4 3 3 2 1 1 1 1 1 0 -1 -1 -1 -1 -2 -3 -3 -4 -4 -4 -5
8 9 9 11 11 12 11 10 8 9 9 9 7 8 9 8 8 7 6 5 5 4 3 3 3 3 2 0 -0 0 0 -0 -1 -1 -1 -2 -2 -3 -4 -4 -5 -4 -4 -5
6 8 10 9 10 11 8 8 10 10 9 9 9 8 8 7 7 6 5 5 4 3 3 2 2 1 -0 -1 -0 -0 -1 -1 -1 -1 -2 -3 -4 -4 -4 -5 -5 -5 -5 -6
7 8 8 8 9 10 10 9 9 9 9 8 8 8 7 7 6 5 4 4 3 2 2 1 0 -0 -1 -1 -1 -1 -1 -1 -2 -2 -3 -4 -4 -4 -5 -5 -6 -7 -8 -9
7 7 8 8 9 9 9 9 9 8 8 8 7 7 6 6 5 4 3 3 2 1 0 0 -0 -1 -1 -1 -1 -1 -2 -2 -3 -3 -3 -4 -4 -5 -6 -6 -8 -9 -9 -9
6 6 7 7 8 9 8 8 8 7 7 7 6 6 5 5 4 3 2 2 1 1 0 -0 -0 -1 -1 -2 -2 -2 -3 -4 -3 -4 -4 -4 -5 -6 -7 -8 -9 -9 -9 -9
6 7 7 7 8 8 7 7 7 6 6 6 5 5 4 3 3 2 1 1 1 0 -0 -0 -0 -1 -2 -2 -3 -4 -4 -4 -4 -5 -5 -6 -6 -7 -8 -9 -10 -10 -9 -9
7 8 8 8 7 7 6 6 6 6 6 5 4 3 2 2 1 1 1 1 0 -0 -1 -1 -1 -2 -3 -4 -4 -4 -4 -5 -5 -5 -6 -7 -7 -9 -10 -9 -9 -9 -10 -10
7 7 5 6 6 6 6 6 6 6 5 3 2 1 -0 -0 -0 0 0 -0 -1 -1 -1 -2 -2 -3 -4 -4 -4 -5 -5 -5 -6 -7 -7 -8 -9 -10 -10 -10 -10 -10 -10 -11
6 7 7 6 6 6 6 6 5 5 5 4 3 -0 -1 -1 -0 -1 -1 -1 -1 -1 -2 -3 -3 -3 -4 -4 -4 -5 -6 -6 -7 -8 -8 -9 -10 -10 -10 -11 -11 -11 -11 -11
5 6 6 5 5 6 6 5 5 4 4 3 2 1 -0 -1 -1 -1 -1 -1 -2 -2 -3 -3 -3 -3 -4 -5 -6 -6 -6 -7 -8 -8 -9 -9 -10 -10 -11 -11 -11 -11 -11 -11
5 4 5 6 6 5 5 4 4 3 2 1 0 -0 -1 -1 -1 -1 -2 -2 -3 -3 -3 -3 -4 -4 -5 -6 -7 -7 -7 -8 -8 -9 -9 -10 -10 -11 -11 -11 -11 -11 -11 -11
6 6 6 6 5 5 4 3 3 3 2 1 0 -0 -1 -1 -1 -2 -2 -2 -3 -3 -4 -4 -5 -5 -6 -7 -7 -7 -8 -8 -9 -9 -10 -10 -11 -11 -11 -11 -12 -12 -12 -12
6 6 5 5 4 4 4 3 3 2 1 0 -0 -1 -1 -2 -2 -2 -2 -3 -3 -4 -4 -5 -5 -6 -6 -7 -7 -8 -8 -9 -10 -10 -11 -11 -11 -11 -11 -12 -12 -13 -13 -12
5 5 4 4 4 3 3 3 2 1 1 -0 -1 -1 -1 -2 -2 -3 -3 -3 -4 -5 -5 -5 -6 -6 -7 -7 -8 -8 -10 -10 -11 -11 -11 -12 -11 -11 -12 -12 -13 -13 -13 -13
5 4 4 4 3 3 2 2 1 1 -0 -1 -1 -2 -2 -2 -3 -3 -4 -5 -5 -5 -6 -6 -6 -7 -7 -8 -9 -11 -10 -10 -11 -11 -11 -11 -11 -12 -12 -12 -13 -13 -13 -13
4 4 4 3 3 2 1 1 1 -0 -1 -1 -2 -2 -3 -3 -4 -5 -5 -6 -6 -6 -6 -7 -7 -8 -9 -11 -10 -10 -10 -10 -11 -11 -11 -11 -12 -12 -12 -13 -13 -14 -14 -14
4 3 3 2 2 1 1 1 0 -1 -2 -2 -3 -3 -4 -5 -5 -5 -5 -6 -6 -6 -7 -7 -8 -9 -9 -11 -10 -10 -10 -10 -11 -11 -11 -12 -12 -12 -13 -13 -14 -14 -13 -14
2 2 2 2 1 1 0 -0 -1 -2 -3 -3 -4 -4 -5 -5 -6 -6 -6 -7 -7 -8 -8 -9 -9 -10 -10 -10 -10 -10 -10 -10 -11 -11 -12 -12 -12 -13 -13 -13 -13 -14 -14 -14
2 2 1 1 0 -0 -1 -1 -2 -3 -4 -4 -5 -5 -6 -6 -6 -7 -7 -7 -8 -9 -9 -9 -10 -10 -10 -10 -10 -10 -11 -11 -11 -12 -13 -12 -12 -13 -13 -14 -14 -14 -14 -14
1 0 0 -0 -1 -1 -2 -3 -4 -4 -5 -6 -6 -7 -7 -7 -7 -8 -8 -8 -9 -10 -10 -10 -10 -10 -10 -11 -11 -11 -11 -11 -12 -12 -12 -13 -13 -14 -14 -14 -14 -13 -13 -13
-0 -1 -1 -2 -2 -3 -4 -5 -5 -6 -6 -7 -7 -7 -7 -7 -8 -8 -9 -9 -9 -10 -10 -10 -10 -10 -11 -11 -11 -11 -11 -12 -12 -13 -14 -14 -13 -13 -13 -14 -13 -13 -13 -13
Height
1446 1444 1446 1449 1454 1462 1464 1463 1469 1463 1469 1459 1456 1457 1459 1460 1461 1461 1462 1464 1466 1469 1471 1473 1474 1475 1475 1476 1475 1473 1470 1467 1463 1460 1458 1454 1450 1446 1441 1437 1433 1428 1423 1419
1447 1446 1445 1447 1449 1457 1458 1460 1458 1461 1462 1455 1456 1457 1458 1458 1458 1458 1460 1462 1465 1467 1469 1470 1472 1473 1474 1473 1472 1469 1466 1463 1461 1458 1454 1450 1446 1441 1438 1434 1429 1424 1418 1412
1450 1448 1448 1452 1448 1452 1451 1451 1453 1461 1453 1452 1456 1458 1459 1459 1458 1458 1459 1460 1462 1465 1467 1469 1471 1472 1471 1470 1468 1465 1463 1460 1457 1454 1450 1446 1442 1438 1434 1428 1423 1418 1413 1408
1457 1452 1463 1437 1438 1439 1445 1447 1447 1448 1449 1451 1455 1458 1459 1459 1459 1459 1460 1460 1461 1464 1466 1468 1469 1469 1468 1466 1464 1462 1459 1457 1454 1450 1446 1443 1439 1434 1429 1424 1418 1413 1408 1403
1451 1456 1445 1437 1439 1440 1439 1448 1446 1448 1451 1453 1455 1457 1458 1458 1459 1459 1458 1458 1460 1463 1465 1466 1466 1466 1465 1463 1461 1458 1456 1454 1450 1446 1442 1439 1434 1430 1425 1419 1414 1408 1402 1396
1460 1456 1448 1433 1432 1432 1433 1450 1446 1447 1451 1453 1456 1463 1460 1459 1458 1457 1457 1458 1459 1462 1462 1463 1464 1463 1462 1460 1458 1455 1453 1450 1447 1443 1439 1436 1432 1426 1421 1415 1408 1402 1396 1390
1450 1451 1443 1432 1431 1432 1447 1447 1444 1447 1450 1453 1456 1457 1457 1457 1456 1456 1457 1457 1458 1459 1461 1461 1461 1459 1458 1457 1455 1452 1450 1447 1444 1440 1436 1432 1427 1422 1415 1408 1402 1397 1390 1384
1455 1451 1445 1431 1433 1438 1439 1441 1444 1447 1450 1452 1453 1454 1454 1454 1454 1455 1456 1457 1457 1458 1458 1458 1458 1456 1455 1453 1452 1449 1447 1444 1440 1436 1433 1428 1422 1415 1409 1403 1397 1391 1384 1377
1439 1437 1431 1431 1432 1434 1437 1440 1445 1447 1449 1451 1451 1452 1452 1452 1453 1453 1454 1455 1456 1456 1456 1455 1454 1453 1452 1450 1448 1445 1443 1440 1436 1432 1427 1422 1415 1409 1403 1399 1393 1386 1379 1373
1434 1435 1434 1433 1435 1437 1440 1442 1444 1446 1447 1448 1449 1449 1450 1450 1451 1452 1452 1453 1453 1453 1453 1452 1451 1450 1448 1446 1444 1441 1438 1435 1431 1426 1420 1415 1410 1405 1399 1394 1388 1382 1376 1370
1434 1434 1434 1435 1435 1437 1439 1441 1442 1444 1445 1446 1446 1447 1448 1448 1448 1449 1450 1450 1450 1450 1449 1449 1448 1447 1445 1443 1440 1438 1434 1430 1424 1419 1414 1408 1405 1400 1394 1389 1385 1379 1373 1368
1427 1423 1427 1429 1434 1435 1437 1439 1441 1442 1443 1444 1444 1444 1445 1445 1445 1446 1446 1446 1446 1446 1446 1446 1445 1444 1442 1440 1437 1433 1428 1423 1417 1412 1408 1403 1397 1390 1388 1383 1379 1374 1369 1365
1421 1423 1425 1428 1432 1434 1436 1438 1439 1440 1441 1441 1441 1441 1441 1441 1442 1442 1443 1443 1444 1444 1444 1443 1442 1442 1440 1436 1432 1428 1422 1417 1412 1408 1403 1398 1392 1386 1377 1372 1371 1366 1362 1359
1420 1423 1428 1429 1431 1433 1435 1436 1437 1438 1438 1437 1437 1437 1438 1438 1438 1439 1440 1441 1441 1441 1441 1441 1440 1438 1435 1431 1426 1422 1418 1414 1409 1403 1398 1392 1387 1382 1377 1370 1362 1357 1356 1353
1419 1422 1424 1428 1430 1431 1433 1434 1435 1435 1434 1433 1433 1433 1434 1435 1436 1437 1438 1439 1439 1439 1439 1437 1435 1433 1429 1425 1421 1417 1412 1407 1402 1396 1391 1387 1383 1377 1372 1367 1361 1355 1350 1346
1419 1422 1425 1427 1428 1429 1430 1431 1431 1431 1430 1430 1430 1430 1432 1433 1434 1435 1436 1437 1437 1436 1436 1434 1431 1428 1425 1420 1415 1411 1406 1402 1397 1392 1386 1382 1378 1372 1368 1363 1357 1353 1347 1341
1417 1420 1422 1424 1425 1427 1427 1428 1428 1427 1428 1428 1428 1428 1429 1431 1432 1433 1434 1434 1433 1433 1431 1429 1426 1423 1419 1414 1409 1404 1400 1395 1392 1387 1382 1377 1373 1368 1364 1359 1354 1349 1343 1338
1414 1416 1419 1421 1422 1424 1424 1424 1424 1425 1425 1425 1425 1425 1426 1427 1429 1430 1430 1430 1429 1429 1427 1424 1420 1417 1413 1409 1404 1399 1394 1390 1386 1381 1377 1372 1368 1365 1359 1354 1349 1343 1338 1334
1413 1416 1418 1419 1420 1420 1421 1421 1421 1421 1421 1421 1422 1423 1424 1425 1426 1426 1426 1426 1425 1422 1421 1419 1415 1412 1408 1404 1399 1394 1389 1384 1380 1376 1372 1367 1362 1358 1353 1348 1343 1339 1334 1329
1413 1415 1416 1417 1418 1418 1418 1418 1418 1418 1418 1418 1419 1419 1421 1422 1422 1422 1421 1421 1420 1417 1414 1411 1408 1405 1401 1396 1392 1387 1383 1379 1375 1371 1366 1362 1357 1352 1347 1343 1339 1334 1329 1324
1410 1412 1413 1414 1415 1415 1415 1415 1415 1414 1414 1414 1415 1416 1417 1417 1417 1417 1416 1415 1416 1412 1409 1406 1403 1399 1394 1390 1385 1382 1378 1374 1370 1365 1360 1355 1351 1346 1342 1337 1333 1329 1324 1319
1407 1409 1410 1411 1412 1412 1412 1412 1411 1410 1410 1410 1411 1412 1413 1414 1414 1413 1411 1409 1407 1405 1402 1399 1396 1392 1387 1384 1380 1376 1372 1368 1363 1358 1354 1350 1345 1340 1336 1332 1327 1323 1319 1315
1406 1407 1407 1408 1408 1408 1408 1408 1407 1406 1406 1407 1407 1408 1408 1408 1408 1407 1405 1405 1402 1399 1396 1393 1390 1386 1382 1378 1373 1370 1365 1361 1357 1353 1348 1344 1339 1335 1330 1326 1323 1319 1315 1310
1403 1404 1404 1404 1404 1403 1404 1403 1402 1402 1403 1404 1404 1404 1404 1403 1403 1402 1401 1398 1396 1393 1389 1386 1383 1379 1375 1370 1366 1362 1358 1354 1350 1346 1342 1338 1333 1329 1325 1321 1317 1313 1309 1305
1399 1399 1400 1400 1400 1400 1400 1399 1398 1399 1399 1400 1401 1400 1400 1399 1398 1396 1395 1393 1390 1387 1382 1379 1376 1372 1368 1363 1359 1355 1351 1347 1343 1339 1335 1331 1327 1322 1319 1315 1312 1308 1305 1301
1395 1396 1396 1396 1396 1396 1395 1395 1396 1396 1396 1397 1397 1397 1397 1396 1394 1391 1389 1386 1383 1379 1375 1372 1368 1364 1360 1356 1352 1348 1344 1341 1337 1333 1328 1324 1320 1316 1313 1309 1306 1302 1299 1295
1391 1392 1392 1393 1393 1392 1393 1393 1394 1394 1395 1395 1395 1395 1393 1391 1389 1386 1383 1380 1376 1373 1369 1365 1361 1358 1354 1349 1345 1341 1337 1333 1329 1325 1321 1317 1313 1309 1306 1303 1300 1297 1294 1291
Wind_Speed
3 3 5 7 9 10 9 7 7 5 8 5 3 2 2 1 5 9 13 17 18 17 15 12 8 4 4 7 15 22 23 23 23 24 25 25 25 27 28 29 31 33 35 36
2 3 2 3 4 8 5 4 3 5 5 4 3 4 4 3 3 0 6 13 15 16 14 11 8 5 5 12 20 25 23 24 25 25 25 25 26 28 30 32 34 36 38 39
3 1 3 4 8 7 5 4 7 7 7 5 3 6 5 6 5 3 4 9 15 16 13 11 7 3 10 17 21 21 24 24 24 24 25 26 28 30 33 35 38 38 39 39
3 1 1 3 1 6 6 2 4 5 5 5 8 6 5 3 3 6 8 10 14 15 13 9 4 7 13 15 18 20 21 24 24 25 26 28 30 33 35 37 38 38 38 37
4 4 3 0 4 6 5 1 1 7 6 7 6 3 3 4 5 8 8 9 12 11 9 6 6 9 14 18 17 20 21 22 23 25 27 30 32 34 35 36 37 37 38 38
2 3 7 1 3 6 4 2 5 8 5 6 6 2 3 4 4 4 4 7 9 9 8 6 7 14 18 18 18 19 20 22 23 25 28 31 32 34 34 34 37 39 40 39
2 2 6 3 3 3 5 4 8 11 11 9 4 4 2 2 1 2 5 8 10 9 5 7 11 17 17 15 17 20 21 22 24 26 29 31 33 32 34 37 39 39 42 42
3 2 6 3 4 6 5 12 15 12 8 5 3 1 1 2 2 2 5 7 7 6 8 11 14 14 13 15 18 20 22 24 26 28 30 31 32 34 36 38 40 42 42 42
6 4 1 1 3 18 16 19 11 6 6 4 3 1 3 5 6 6 7 8 8 9 9 11 11 14 15 17 20 22 25 27 28 30 31 31 34 36 39 39 39 39 37 36
3 2 2 13 17 14 12 10 8 5 4 2 2 1 5 7 6 7 8 9 9 9 10 11 12 14 17 19 22 24 27 28 30 32 35 35 35 36 38 38 36 33 32 35
0 2 3 7 9 11 9 6 4 2 2 3 5 6 7 6 6 6 7 8 10 11 10 11 13 16 17 20 23 25 27 29 33 35 36 37 37 37 36 34 27 29 32 34
5 9 5 9 11 8 6 5 5 3 3 6 9 9 8 6 5 5 6 9 10 10 11 12 15 17 18 21 23 26 30 33 34 36 37 38 39 41 37 31 26 27 27 26
3 13 8 16 11 10 7 5 3 3 5 7 8 7 7 5 5 6 8 9 9 10 11 14 17 17 18 21 25 28 31 33 35 35 36 37 38 38 40 39 33 30 27 28
15 14 11 14 8 6 4 2 2 6 8 8 7 6 6 7 5 6 7 9 9 10 13 15 17 18 20 25 28 29 31 32 33 34 35 36 34 34 34 35 37 37 35 30
16 7 10 11 6 3 2 1 5 8 9 8 7 6 5 5 6 7 8 9 11 12 13 16 18 20 25 28 29 29 31 32 33 34 33 31 33 34 34 32 32 36 36 36
15 13 8 5 6 4 1 4 7 9 9 7 6 5 5 6 7 8 8 10 12 13 15 18 22 25 28 27 28 30 32 32 32 32 31 32 33 33 32 32 34 34 35 37
14 9 6 9 4 0 4 6 8 8 8 7 5 6 7 8 9 8 9 11 13 15 18 21 25 26 27 27 29 32 33 32 30 29 31 33 34 31 32 33 33 35 36 37
5 13 9 4 1 3 5 7 8 9 9 8 9 9 10 11 10 10 11 13 16 17 19 22 25 27 28 29 30 32 32 30 29 30 32 34 30 31 32 33 33 34 34 34
14 9 5 1 3 5 7 9 9 10 10 11 11 11 11 11 12 12 15 17 19 22 23 25 26 28 29 30 30 30 28 29 31 33 34 31 33 32 34 34 32 32 31 32
12 6 2 3 5 7 8 9 11 11 11 12 12 13 13 12 13 15 18 19 20 22 25 27 29 30 31 31 29 28 29 31 32 34 35 30 33 34 34 33 29 32 33 31
9 6 3 4 6 9 11 12 13 13 12 13 14 13 13 14 16 18 19 22 21 24 26 28 29 31 31 30 28 29 30 31 33 34 33 33 32 33 34 33 32 33 32 30
6 6 8 9 10 11 12 14 14 13 14 14 14 15 16 16 17 18 19 22 25 26 29 30 30 30 29 26 28 30 31 32 32 32 31 30 32 32 32 33 34 32 30 31
6 8 9 11 12 14 15 16 16 15 13 13 14 14 16 16 17 20 24 23 25 27 29 30 29 28 27 26 29 30 30 30 30 29 30 31 30 31 33 33 30 30 32 31
8 10 12 14 16 16 16 17 15 13 12 12 13 14 15 16 18 18 22 24 26 28 29 28 28 27 27 29 29 29 29 29 30 30 30 29 32 33 31 30 31 31 30 28
13 14 15 16 15 15 17 15 12 10 10 10 11 12 14 17 20 21 23 25 27 27 29 28 27 28 28 28 28 29 29 29 30 30 30 31 30 30 31 32 30 28 26 27
15 14 14 14 14 15 13 10 8 7 7 8 9 11 13 16 19 22 24 26 27 27 27 28 28 28 28 28 28 29 29 30 30 30 30 29 30 32 31 29 27 25 25 25
13 13 12 12 12 10 7 6 6 6 6 7 8 11 15 18 21 23 24 25 26 26 27 27 27 27 27 29 29 30 30 30 30 30 30 30 31 30 27 25 25 24 23 22
Wind_Direction
38 150 146 179 175 178 194 195 187 215 209 219 174 206 173 255 215 229 225 212 208 202 201 203 216 243 295 338 347 343 338 333 335 336 334 333 333 334 334 334 333 332 332 331
78 66 142 199 186 185 200 160 230 147 233 223 117 109 65 43 43 141 219 213 208 207 209 211 219 241 331 345 344 345 340 335 332 331 332 333 333 333 332 332 332 333 333 332
179 103 117 293 215 184 185 181 152 194 210 153 88 110 78 64 43 7 284 229 216 213 210 213 219 290 338 340 345 344 337 331 328 331 333 332 332 333 333 333 332 332 331 329
133 105 193 232 233 172 133 127 161 106 113 130 141 125 73 52 8 326 286 243 219 211 210 208 233 316 329 336 336 331 335 331 329 330 330 332 334 334 332 331 330 330 328 328
143 194 295 21 180 152 156 181 140 128 119 112 119 78 48 357 305 291 281 250 217 207 204 218 276 319 330 329 327 334 330 328 327 330 332 333 333 330 329 328 327 328 330 331
102 147 210 213 134 133 128 228 180 138 130 132 128 88 254 316 261 259 245 211 201 200 213 245 311 329 329 330 328 328 328 328 330 331 330 329 328 328 327 327 328 331 330 332
114 239 289 240 151 147 121 211 145 141 134 138 157 188 263 258 264 185 181 190 201 210 241 299 318 324 323 323 324 325 326 327 327 328 328 328 326 327 328 330 331 330 330 329
117 169 272 152 81 163 155 128 134 136 146 161 162 149 348 4 337 274 238 224 227 251 287 309 319 319 320 322 322 324 324 325 327 328 327 326 326 329 331 331 330 330 328 328
176 219 332 140 148 135 140 144 154 153 162 162 171 52 1 328 300 279 257 249 254 277 299 313 318 319 319 320 320 322 322 324 325 324 326 329 331 330 330 330 329 328 328 326
120 213 116 124 128 129 132 135 148 158 169 182 161 308 317 309 288 268 257 253 262 282 303 311 311 313 319 319 318 319 320 322 323 326 329 330 328 328 326 327 328 326 323 320
191 111 113 172 149 148 144 146 144 165 210 242 251 279 285 288 276 254 252 258 279 296 302 305 307 312 319 317 316 317 318 323 327 327 328 326 325 326 327 327 322 318 317 318
213 184 152 178 159 154 153 162 182 201 245 263 267 271 269 259 249 253 265 286 290 291 298 304 310 316 317 313 315 319 322 326 327 326 325 325 325 325 329 329 321 320 319 318
170 154 134 146 156 152 161 171 198 279 292 283 273 268 274 271 258 283 285 288 285 291 303 310 310 314 316 317 320 322 324 325 324 323 323 325 327 329 330 331 330 332 327 325
154 138 125 147 158 158 172 198 288 304 301 290 281 277 278 270 256 278 280 278 285 298 306 306 313 321 319 320 321 322 322 321 320 321 323 326 328 327 326 327 327 331 333 328
158 177 152 149 154 186 175 297 308 314 314 308 296 265 242 254 255 259 265 277 289 297 305 312 315 320 321 321 319 319 320 321 324 325 326 326 325 328 328 325 321 322 323 326
150 147 144 156 149 142 310 314 315 320 316 313 308 276 244 242 243 250 260 275 291 304 311 316 317 317 318 318 319 321 323 324 324 324 325 325 328 328 324 325 322 319 321 323
155 172 166 138 135 265 318 315 313 313 304 301 289 255 245 239 239 251 271 286 296 307 313 313 314 318 319 323 323 323 322 323 324 321 325 329 327 325 324 321 317 319 323 326
147 134 130 118 68 332 325 321 314 306 301 289 273 257 245 241 251 261 276 287 296 303 310 313 318 320 322 322 320 321 321 321 322 323 326 327 324 317 318 322 318 319 319 322
143 134 121 69 350 341 332 321 311 301 291 280 266 255 245 246 258 275 284 291 302 311 316 318 319 319 319 320 320 319 318 320 322 323 324 319 322 322 319 323 320 318 321 323
151 146 90 3 339 327 324 320 308 297 284 271 258 248 250 258 269 280 290 298 309 312 315 319 320 320 320 319 320 320 321 320 319 318 321 318 319 322 322 321 321 322 324 325
187 205 235 304 316 318 319 314 306 296 282 268 259 254 259 268 281 288 294 301 314 312 315 317 318 318 319 320 323 316 313 315 316 318 319 320 320 321 322 323 323 325 327 326
231 263 280 281 292 304 306 306 303 293 280 271 263 264 270 277 284 289 299 307 313 314 316 318 320 320 320 317 310 312 314 315 315 316 318 319 320 320 321 323 324 326 324 322
257 271 280 284 289 296 304 310 308 296 281 270 264 268 275 283 291 300 306 311 312 314 314 317 318 318 317 311 313 314 314 313 314 317 319 319 318 319 321 320 319 317 321 325
284 279 279 287 293 297 302 303 296 284 274 268 270 276 284 291 297 304 305 310 313 313 316 317 317 317 315 314 315 314 315 316 318 318 319 319 318 316 314 316 321 323 324 326
290 277 274 283 288 293 299 297 286 274 268 268 274 282 293 299 303 309 310 311 312 313 314 318 318 316 314 316 317 318 318 316 318 320 317 313 314 317 318 319 319 320 317 313
273 270 271 278 287 295 296 288 273 266 269 274 283 294 296 300 304 307 311 314 316 317 318 319 319 320 320 318 318 318 318 317 316 317 317 316 316 316 316 316 317 319 320 321
268 266 266 277 287 290 285 277 277 283 290 294 295 300 306 308 310 313 315 316 317 320 321 321 321 322 321 319 319 318 318 317 318 318 315 312 313 316 317 316 315 316 318 320